Weather in Malenga

Russia / Republic of Karelia     63°51′15″N   36°27′39″E
temp.,
°C
wind,
m/s
gust,
m/s
humid.,
%
clouds,
%
prec.,
mm/h
press.,
hPa
HPBL,
m
25 july, sun
sun2500:00+12wnw276341 0.0 1011215
03:00+8sw23746 0.0 101243
06:00+13wsw41157100 0.0 1012393
09:00+14wsw386475 0.2 1012450
12:00+15w396295 0.0 1013900
15:00+17wnw376582 0.4 1013934
18:00+16nne137744 0.6 1014164
21:00+15w11816 0.6 101527
26 july, mon
mon2600:00+13sw237979 0.0 101563
03:00+13sw287985 0.0 1015180
06:00+13wnw1686100 0.3 1016220
09:00+16nw368127 1.0 1016592
12:00+18n465494 0.1 10171256
15:00+17nne465310 0.1 1019741
18:00+15nne4655100 0.0 1020504
21:00+11nw22665 0.0 102026
27 july, tue
tue2700:00+7w11795 0.0 102210
03:00+7wsw117613 0.0 102210
06:00+11wnw006141 0.0 102263
09:00+17nnw13415 0.0 1021673
12:00+20nnw34365 0.0 10201412
15:00+20n453796 0.0 1020927
18:00+19nne233817 0.0 1019435
21:00+14se115789 0.0 101811
28 july, wed
wed2800:00+12s226183 0.0 101715
03:00+12ssw276875 0.0 1015120
06:00+15sw4137851 0.4 1012349
09:00+20wsw596588 0.7 1010529
12:00+26nw483942 0.0 10081787
15:00+23nne45516 0.0 1008635
18:00+18nne248396 1.6 1007207
21:00+14e11911 4.1 100615
29 july, thu
thu2900:00+13ese229261 0.2 100524
03:00+13e119462 1.1 100324
06:00+15ssw269399 0.9 1002154
09:00+21wsw2467100 0.9 1000446
12:00+26w2540100 0.0 9981458
15:00+27wsw4637100 0.1 9961995
18:00+18sw3978100 0.2 996393
21:00+16s2596100 1.5 994181